Weather History for Torino, Italy

Change the Weather History Date:

Tuesday, January 29, 2013

  Actual Average Record
Temperature  
Mean Temperature 40 °F -  
Max Temperature 46 °F 47 °F 55 °F (2008)
Min Temperature 33 °F 30 °F 19 °F (2005)
Degree Days  
Heating Degree Days 24    
Moisture  
Dew Point 34 °F    
Average Humidity 86    
Maximum Humidity 100    
Minimum Humidity 66    
Precipitation  
Precipitation 0.00 in 0.07 in - ()
Sea Level Pressure  
Sea Level Pressure 30.19 in    
Wind  
Wind Speed 3 mph ()    
Max Wind Speed 8 mph    
Max Gust Speed -    
Visibility 2.3 miles    
Events      
Averages and records for this station are not official NWS values.
T = Trace of Precipitation, MM = Missing Value Source: Averaged Metar Reports

Daily Weather History Graph

Daily Weather History Graph

Search for Another Location

Airport:

Trip Planner

Search our weather history database for the weather conditions in past years. The results will help you decide how hot, cold, wet, or windy it might be!

Date:

Astronomy

Jan. 29, 2013 Rise Set
Actual Time 7:53 AM CET 5:32 PM CET
Civil Twilight 7:21 AM CET 6:04 PM CET
Nautical Twilight 6:45 AM CET 6:39 PM CET
Astronomical Twilight 6:11 AM CET 7:14 PM CET
Moon 8:22 PM CET (1/29) 8:32 AM CET (1/29)
Length of Visible Light 10h 42m
Length of Day
9h 39m
Waning Gibbous, 95% of the Moon is Illuminated
Jan 29
Waning Gibbous
Feb 3
Last Quarter
Feb 10
New
Feb 17
First Quarter
Feb 25
Full

Hourly Weather History & Observations

Time (CET) Temp. Windchill Dew Point Humidity Pressure Visibility Wind Dir Wind Speed Gust Speed Precip Events Conditions
12:20 AM 35.6 °F - 35.6 °F 100% 30.24 in 2.2 mi Variable 2.3 mph - N/A   Mostly Cloudy
12:50 AM 35.6 °F - 35.6 °F 100% 30.24 in 2.2 mi Variable 2.3 mph - N/A   Mostly Cloudy
1:20 AM 35.6 °F - 35.6 °F 100% 30.24 in 2.2 mi Variable 1.2 mph - N/A   Mostly Cloudy
1:50 AM 35.6 °F - 35.6 °F 100% 30.24 in 2.2 mi Variable 1.2 mph - N/A   Mostly Cloudy
2:20 AM 35.6 °F - 35.6 °F 100% 30.24 in 2.2 mi Variable 2.3 mph - N/A   Mostly Cloudy
2:50 AM 35.6 °F - 35.6 °F 100% 30.24 in 2.2 mi Variable 1.2 mph - N/A   Mostly Cloudy
3:20 AM 35.6 °F 31.7 °F 35.6 °F 100% 30.24 in 2.2 mi East 4.6 mph - N/A   Mostly Cloudy
3:50 AM 35.6 °F - 35.6 °F 100% 30.24 in 2.2 mi Variable 2.3 mph - N/A   Mostly Cloudy
4:20 AM 35.6 °F - 35.6 °F 100% 30.24 in 2.2 mi Variable 1.2 mph - N/A   Mostly Cloudy
4:50 AM 37.4 °F - 33.8 °F 87% 30.24 in 2.2 mi Variable 1.2 mph - N/A   Mostly Cloudy
5:20 AM 37.4 °F 33.8 °F 33.8 °F 87% 30.24 in 2.2 mi WNW 4.6 mph - N/A   Mostly Cloudy
5:50 AM 37.4 °F 34.9 °F 33.8 °F 87% 30.24 in 2.2 mi WNW 3.5 mph - N/A   Mostly Cloudy
6:20 AM 37.4 °F 34.9 °F 33.8 °F 87% 30.27 in 2.2 mi NNW 3.5 mph - N/A   Mostly Cloudy
6:50 AM 35.6 °F 31.7 °F 33.8 °F 93% 30.24 in 2.2 mi West 4.6 mph - N/A   Mostly Cloudy
7:20 AM 35.6 °F - 33.8 °F 93% 30.24 in 2.2 mi Calm Calm - N/A   Mostly Cloudy
7:50 AM 35.6 °F 32.8 °F 32.0 °F 87% 30.24 in 2.2 mi West 3.5 mph - N/A   Mostly Cloudy
8:20 AM 35.6 °F 30.7 °F 32.0 °F 87% 30.24 in 2.2 mi WSW 5.8 mph - N/A   Mostly Cloudy
8:50 AM 35.6 °F 31.7 °F 32.0 °F 87% 30.24 in 2.2 mi WSW 4.6 mph - N/A   Mostly Cloudy
9:20 AM 35.6 °F 31.7 °F 32.0 °F 87% 30.24 in 2.2 mi WSW 4.6 mph - N/A   Scattered Clouds
9:50 AM 35.6 °F 30.7 °F 32.0 °F 87% 30.21 in 2.2 mi SW 5.8 mph - N/A   Scattered Clouds
10:20 AM 37.4 °F 32.8 °F 32.0 °F 81% 30.21 in 2.2 mi SW 5.8 mph - N/A   Mist
10:50 AM 39.2 °F 35.9 °F 33.8 °F 81% 30.21 in 2.2 mi SSW 4.6 mph - N/A   Mist
11:20 AM 39.2 °F 35.0 °F 33.8 °F 81% 30.24 in 2.5 mi SSW 5.8 mph - N/A   Mist
11:50 AM 41.0 °F 37.1 °F 33.8 °F 76% 30.24 in 2.5 mi SSW 5.8 mph - N/A   Mist
12:20 PM 42.8 °F 40.1 °F 33.8 °F 70% 30.18 in 3.1 mi SW 4.6 mph - N/A   Mist
12:50 PM 42.8 °F 40.1 °F 33.8 °F 70% 30.18 in 3.1 mi SE 4.6 mph - N/A   Mist
1:20 PM 42.8 °F - 33.8 °F 70% 30.15 in 2.5 mi Variable 2.3 mph - N/A   Mist
1:50 PM 42.8 °F - 33.8 °F 70% 30.15 in 2.5 mi Variable 2.3 mph - N/A   Mist
2:20 PM 42.8 °F 40.1 °F 33.8 °F 70% 30.15 in 2.5 mi East 4.6 mph - N/A   Mist
2:50 PM 44.6 °F 42.2 °F 35.6 °F 71% 30.15 in 2.5 mi ENE 4.6 mph - N/A   Mist
3:20 PM 46.4 °F 45.2 °F 35.6 °F 66% 30.15 in 2.5 mi NE 3.5 mph - N/A   Mist
3:50 PM 44.6 °F 43.1 °F 35.6 °F 71% 30.15 in 2.5 mi ESE 3.5 mph - N/A   Mist
4:20 PM 44.6 °F 43.1 °F 35.6 °F 71% 30.12 in 2.5 mi SE 3.5 mph - N/A   Mist
4:50 PM 44.6 °F - 35.6 °F 71% 30.15 in 3.1 mi Calm Calm - N/A   Mist
5:20 PM 42.8 °F 40.1 °F 35.6 °F 76% 30.12 in 2.5 mi SSE 4.6 mph - N/A   Mist
5:50 PM 41.0 °F 39.0 °F 35.6 °F 81% 30.15 in 2.2 mi SE 3.5 mph - N/A   Mist
6:20 PM 41.0 °F 36.4 °F 35.6 °F 81% 30.15 in 2.2 mi SSW 6.9 mph - N/A   Mist
6:50 PM 39.2 °F 37.0 °F 35.6 °F 87% 30.15 in 3.1 mi SSW 3.5 mph - N/A   Mist
7:20 PM 37.4 °F 33.8 °F 35.6 °F 93% 30.15 in 2.5 mi SSW 4.6 mph - N/A   Mist
7:50 PM 37.4 °F 31.4 °F 35.6 °F 93% 30.15 in 2.5 mi SW 8.1 mph - N/A   Mist
8:20 PM 37.4 °F 31.4 °F 35.6 °F 93% 30.15 in 1.9 mi SW 8.1 mph - N/A   Mist
8:50 PM 37.4 °F 34.9 °F 35.6 °F 93% 30.15 in 1.7 mi SW 3.5 mph - N/A   Mist
9:20 PM 35.6 °F 32.8 °F 35.6 °F 100% 30.15 in 1.6 mi WSW 3.5 mph - N/A   Mist
9:50 PM 35.6 °F 30.7 °F 33.8 °F 93% 30.12 in 1.6 mi WSW 5.8 mph - N/A   Mist
10:20 PM 35.6 °F 31.7 °F 33.8 °F 93% 30.12 in 1.6 mi WNW 4.6 mph - N/A   Mist
10:50 PM 35.6 °F 32.8 °F 33.8 °F 93% 30.12 in 1.6 mi West 3.5 mph - N/A   Mist
11:20 PM 35.6 °F 32.8 °F 33.8 °F 93% 30.15 in 1.6 mi WSW 3.5 mph - N/A   Mist
11:50 PM 33.8 °F 28.6 °F 32.0 °F 93% 30.15 in 1.6 mi WSW 5.8 mph - N/A   Mist